Starlink 2657

operational
NORAD ID: 48655 Int'l Des: 2021-044 Owner: SPXS Country: US Constellation: starlink
LEOCIRCULARSTARLINK_TYPE

Über Starlink 2657

Beschreibung wird geladen...

Live-Position

3D-Globus wird geladen...

Nächste Überflüge

Höhenverlauf

Altitude vs Time

uPlot chart will show altitude changes over time

Zweizeiliger Elementsatz

1 48655U 21044T 25352.79535399 -.00000552 00000-0 -18161-4 0 9991
2 48655 53.0555 124.7653 0001546 87.9251 272.1915 15.06395864251517
Epoch: 18. Dez. 2025 • Age: 16 hours

Aktueller Status

Höhe 558.2 km
Geschwindigkeit 7.58 km/s
Subsatellitenpunkt -32.84°S, 157.69°W
Startdatum 26. Mai 2021
Alter 4.5 years
Typ internet

Technische Details

Klassifizierung Payload
Masse 260.00 kg
Trockenmasse 248.00 kg
Gesamtmasse 260.00 kg
Länge 0.20 m
Durchmesser 2.80 m
Spannweite 9.00 m
Form Box + pan
Hersteller SPXS
Bus-Typ Starlink
Phasenstatus In Orbit
Besitzer/Staat SPXS/US

Große Konstellationen

Loading constellations...